Regional Weather Roundup
Issued by NWS Cleveland, OH

Home | Current Version | Previous Version | Graphics & Text | Print | Product List | Glossary On
Versions: 1 2 3 4 5 6 7 8 9 10 11 12 13 14 15 16 17 18 19 20 21 22 23 24 25 26 27 28 29 30 31 32 33 34 35 36 37 38 39 40 41 42 43 44 45 46 47 48 49 50
000
ASUS41 KCLE 260810
RWRCLE
OHIO REGIONAL WEATHER ROUNDUP
NATIONAL WEATHER SERVICE WILMINGTON, OH
400 AM EDT THU APR 26 2018

NOTE: "FAIR" INDICATES FEW OR NO CLOUDS BELOW 12,000 FEET WITH NO
SIGNIFICANT WEATHER AND/OR OBSTRUCTIONS TO VISIBILITY.

OHZ001>008-015>018-024>027-034-035-043-044-260900-
   NORTHWEST OHIO

CITY           SKY/WX    TMP DP  RH WIND       PRES   REMARKS
DEFIANCE       FAIR      40  37  89 E6        29.94R
FINDLAY        FAIR      41  35  79 E6        29.91S
TOLEDO EXPRESS FAIR      39  39 100 E3        29.93F FOG
TOLEDO EXEC    FAIR      39  37  92 CALM      29.94F
LIMA           CLOUDY    42  40  92 E7        29.92R
$$

OHZ009>014-019>023-028>033-038-089-260900-
   NORTHEAST OHIO

CITY           SKY/WX    TMP DP  RH WIND       PRES   REMARKS
CLE-HOPKINS    FAIR      36  34  92 CALM      29.95R
CLE-LAKEFRONT  CLOUDY    39  34  82 SW5       29.93R
CUY CO. ARPT   NOT AVBL
LORAIN-ELYRIA  FAIR      33  29  85 NW9       29.93F WCI  25
ASHTABULA      FAIR      33  33 100 W6        29.90R WCI  28
AKRON-CANTON   FAIR      36  32  85 N3        29.91R
WOOSTER        FAIR      34  33  96 NW5       29.92R WCI  30
MANSFIELD      FAIR      36  36 100 CALM      29.91S
YOUNGSTOWN     MOCLDY    36  33  89 W3        29.89S
$$

OHZ042-051>053-060>062-070>072-077>081-260900-
  SOUTHWEST OHIO

CITY           SKY/WX    TMP DP  RH WIND       PRES   REMARKS
CINC-COVINGTON CLOUDY    47  33  58 N6        29.89F
CINC-LUNKEN    FAIR      48  35  60 N5        29.91F
HAMILTON       FAIR      42  38  85 CALM      29.92F
DAYTON         MOCLDY    41  34  76 N3        29.91S
WRIGHT-PAT AFB FAIR      43  33  68 CALM      29.90S
DAYTON GENERAL FAIR      45  33  63 N5        29.89F
WILMINGTON     FAIR      47  36  65 NW6       29.89F
$$

OHZ036-037-039>041-045>050-054>059-063>069-073>076-082>088-260900-
  CENTRAL AND SOUTHEAST OHIO

CITY           SKY/WX    TMP DP  RH WIND       PRES   REMARKS
COLUMBUS       FAIR      45  40  82 E5        29.90S
OSU AIRPORT    FAIR      42  39  89 NE5       29.90R
BOLTON FIELD   FAIR      44  42  91 E3        29.91R
RICKENBACK AFB FAIR      43  43 100 E6        29.90S
NEWARK         MOCLDY    42  40  92 CALM      29.91R FOG
MARION         FAIR      36  35  96 NE7       29.92S FOG
LANCASTER      FAIR      38  38 100 CALM      29.91S
ZANESVILLE     CLOUDY    41  39  93 CALM      29.91R FOG
NEW PHILLY     FAIR      37  36  96 CALM      29.92R FOG
$$




USA.gov is the U.S. government's official web portal to all federal, state and local government web resources and services.